Flag for Azerbaijan Weather past 2 weeks in Sumqayit, Azerbaijan

Now
61 °F

Sunny.


Feels Like: 61 °F
Forecast: 52 / 59 °F
Wind: 8 mph from North

Location: Baku / Bine Airport

Current Time: May 6, 2015 at 9:33:21 AM

Latest Report: May 6, 2015 at 9:00 AM


Visibility: 10 mi

Pressure: 29.98 "Hg

Humidity: 52%

Dew point: 43 °F

Location of SumqayitLocation

Historic Weather in Sumqayit — Graph

°F

Sumqayit temperature yesterday

Maximum temperature yesterday: 66 °F (at 1:30 AM)
Minimum temperature yesterday: 54 °F (at 9:00 PM)
Average temperature yesterday: 59 °F

Past Weeks' High & Low Weather Summary

 TemperatureHumidityPressure
High75 °F (May 2, 1:00 PM)100% (Apr 27, 1:30 AM)30.18 "Hg (Apr 27, 1:30 AM)
Low45 °F (Apr 27, 6:30 AM)33% (Apr 28, 4:30 PM)29.65 "Hg (Apr 21, 2:30 PM)
Average58 °F69%29.95 "Hg
* Reported Apr 21 8:00 AM — May 6 8:00 AM, Sumqayit, Weather by CustomWeather, © 2015

Note: Actual official high and low records may vary slightly from our data, if they occured in-between our weather recording intervals... More about our weather records

Advertising

Sumqayit weather history for previous 24 hours

 ConditionsComfort  
Time TempWeatherWind HumidityBarometerVisibility
8:00 AM
Wed, May 6
59 °FSunny.3 mph59%29.98 "Hg10 mi
7:30 AM57 °FClear.6 mph63%29.95 "Hg10 mi
7:00 AM57 °FClear.6 mph63%29.95 "Hg10 mi
6:30 AM55 °FClear.7 mph72%29.95 "Hg10 mi
6:00 AM55 °FClear.7 mph72%29.95 "Hg10 mi
5:30 AM55 °FClear.8 mph67%29.95 "Hg10 mi
5:00 AM57 °FClear.13 mph63%29.95 "Hg10 mi
4:30 AM57 °FClear.14 mph63%29.95 "Hg10 mi
4:00 AM57 °FMostly cloudy.13 mph63%29.95 "HgN/A
3:30 AM57 °FOvercast.14 mph63%29.95 "HgN/A
3:00 AM57 °FOvercast.15 mph63%29.95 "HgN/A
2:30 AM57 °FOvercast.16 mph67%29.95 "HgN/A
2:00 AM55 °FSprinkles. Overcast.16 mph72%29.98 "HgN/A
1:30 AM55 °FOvercast.20 mph72%29.98 "HgN/A
1:00 AM55 °FOvercast.20 mph72%29.98 "HgN/A
12:30 AM55 °FOvercast.21 mph72%29.98 "HgN/A
12:00 AM55 °FOvercast.23 mph77%29.98 "HgN/A
11:30 PM
Tue, May 5
54 °FSprinkles. Overcast.23 mph88%29.98 "HgN/A
11:00 PM54 °FOvercast.23 mph88%29.98 "HgN/A
10:30 PM54 °FMostly cloudy.28 mph88%29.98 "HgN/A
10:00 PM54 °FLight rain. Mostly cloudy.25 mph88%29.98 "HgN/A
9:30 PM54 °FMostly cloudy.29 mph88%29.98 "HgN/A
9:00 PM54 °FMostly cloudy.25 mph88%29.95 "HgN/A
8:30 PM55 °FMostly cloudy.29 mph88%29.95 "HgN/A
8:00 PM55 °FMostly cloudy.28 mph88%29.92 "HgN/A
7:30 PM55 °FMostly cloudy.28 mph88%29.92 "HgN/A
7:00 PM57 °FMostly cloudy.28 mph82%29.89 "HgN/A
6:30 PM59 °FMore clouds than sun.25 mph82%29.89 "HgN/A
6:00 PM59 °FBroken clouds.23 mph82%29.89 "HgN/A
5:30 PM63 °FSunny.22 mph73%29.86 "Hg10 mi
5:00 PM63 °FSunny.22 mph68%29.86 "Hg10 mi
4:30 PM63 °FSunny.20 mph68%29.86 "Hg10 mi
4:00 PM61 °FSunny.17 mph72%29.86 "Hg10 mi
3:30 PM61 °FOvercast.16 mph72%29.86 "HgN/A
3:00 PM61 °FOvercast.18 mph72%29.86 "HgN/A
2:30 PM61 °FOvercast.14 mph77%29.86 "HgN/A
2:00 PM61 °FMore clouds than sun.13 mph77%29.86 "HgN/A
1:30 PM61 °FMore clouds than sun.13 mph77%29.86 "HgN/A
1:00 PM61 °FOvercast.14 mph77%29.86 "HgN/A
12:30 PM63 °FOvercast.15 mph68%29.86 "HgN/A
12:00 PM63 °FOvercast.9 mph73%29.86 "HgN/A
11:30 AM63 °FOvercast.7 mph73%29.86 "HgN/A
11:00 AM63 °FOvercast.7 mph73%29.86 "HgN/A
10:30 AM63 °FOvercast.8 mph73%29.86 "HgN/A
10:00 AM61 °FPartly sunny.7 mph77%29.86 "HgN/A
9:30 AM61 °FPartly sunny.8 mph77%29.86 "HgN/A
9:00 AM61 °FPartly sunny.9 mph77%29.86 "HgN/A
Weather by CustomWeather, © 2015

See weather overviewHow to use our weather pages